CRG096 VNKT-VNCG

Flight info

Callsign CRG096
Flight time 1h 16m
Altitude 14000
Route IGRIS1E AHALE DCT CHURE CHURE1R
Aircraft L410/M-SDFGRWY/S

Departure

Time 2026-04-17 15:24
Airport Tribhuvan International Airport (VNKT)

Arrival

Time 2026-04-17 16:41
Airport Bhadrapur Airport (VNCG)
Time Latitude Longitude Altitude Speed Heading
2026-04-17 14:46 27.70460 85.35897 4453 ft 0 kts 252°
2026-04-17 15:18 27.70458 85.35895 4454 ft 0 kts 197°
2026-04-17 15:18 27.70455 85.35898 4454 ft 0 kts 131°
2026-04-17 15:18 27.70431 85.35934 4455 ft 9 kts 148°
2026-04-17 15:19 27.70382 85.36001 4456 ft 11 kts 91°
2026-04-17 15:19 27.70422 85.36024 4456 ft 0 kts 345°
2026-04-17 15:19 27.70428 85.36022 4456 ft 0 kts 343°
2026-04-17 15:21 27.70430 85.36021 4456 ft 1 kts 343°
2026-04-17 15:21 27.70471 85.36063 4454 ft 20 kts 69°
2026-04-17 15:21 27.70544 85.36199 4449 ft 13 kts 22°
2026-04-17 15:21 27.70566 85.36214 4448 ft 0 kts 52°
2026-04-17 15:22 27.70568 85.36218 4448 ft 2 kts 68°
2026-04-17 15:22 27.70571 85.36247 4447 ft 5 kts 68°
2026-04-17 15:22 27.70591 85.36304 4446 ft 9 kts 67°
2026-04-17 15:22 27.70548 85.36319 4447 ft 9 kts 203°
2026-04-17 15:23 27.70537 85.36314 4447 ft 0 kts 205°
2026-04-17 15:23 27.70525 85.36307 4447 ft 16 kts 203°
2026-04-17 15:23 27.70183 85.36150 4452 ft 82 kts 201°
2026-04-17 15:24 27.69605 85.35888 4654 ft 99 kts 202°
2026-04-17 15:24 27.68849 85.35525 4796 ft 126 kts 213°
2026-04-17 15:24 27.68381 85.34707 4995 ft 133 kts 263°
2026-04-17 15:24 27.68401 85.33720 5357 ft 125 kts 263°
2026-04-17 15:25 27.67982 85.32881 5542 ft 131 kts 220°
2026-04-17 15:25 27.67265 85.32228 5795 ft 131 kts 225°
2026-04-17 15:25 27.66731 85.31395 5989 ft 137 kts 243°
2026-04-17 15:25 27.66487 85.30311 6096 ft 147 kts 274°
2026-04-17 15:26 27.66953 85.29266 6207 ft 154 kts 314°
2026-04-17 15:26 27.67780 85.28559 6518 ft 146 kts 324°
2026-04-17 15:26 27.68636 85.27953 6756 ft 145 kts 334°
2026-04-17 15:26 27.69609 85.27646 6961 ft 148 kts 349°
2026-04-17 15:27 27.70630 85.27525 7228 ft 145 kts 355°
2026-04-17 15:27 27.71618 85.27692 7471 ft 144 kts 19°
2026-04-17 15:27 27.72474 85.28255 7725 ft 143 kts 39°
2026-04-17 15:27 27.73111 85.29143 7906 ft 147 kts 59°
2026-04-17 15:28 27.73509 85.30174 8185 ft 143 kts 69°
2026-04-17 15:28 27.73844 85.31258 8336 ft 148 kts 71°
2026-04-17 15:28 27.74126 85.32352 8601 ft 144 kts 72°
2026-04-17 15:28 27.74395 85.33457 8784 ft 146 kts 74°
2026-04-17 15:29 27.74664 85.34565 8958 ft 149 kts 72°
2026-04-17 15:29 27.74962 85.35716 9064 ft 155 kts 73°
2026-04-17 15:29 27.75208 85.36897 9203 ft 158 kts 84°
2026-04-17 15:29 27.75142 85.38159 9337 ft 161 kts 99°
2026-04-17 15:30 27.74903 85.39372 9533 ft 159 kts 106°
2026-04-17 15:30 27.74461 85.40523 9693 ft 159 kts 121°
2026-04-17 15:30 27.73789 85.41505 9886 ft 157 kts 132°
2026-04-17 15:30 27.73021 85.42396 10033 ft 159 kts 134°
2026-04-17 15:31 27.72293 85.43314 10234 ft 156 kts 131°
2026-04-17 15:31 27.71487 85.44151 10327 ft 161 kts 146°
2026-04-17 15:31 27.70502 85.44778 10456 ft 163 kts 155°
2026-04-17 15:31 27.69421 85.45225 10517 ft 168 kts 161°
2026-04-17 15:32 27.68404 85.45831 10734 ft 163 kts 144°
2026-04-17 15:32 27.67620 85.46733 10884 ft 163 kts 123°
2026-04-17 15:32 27.66928 85.47742 11031 ft 164 kts 132°
2026-04-17 15:32 27.66126 85.48672 11152 ft 166 kts 135°
2026-04-17 15:33 27.65338 85.49598 11360 ft 162 kts 129°
2026-04-17 15:33 27.64619 85.50602 11452 ft 166 kts 122°
2026-04-17 15:33 27.64055 85.51720 11646 ft 162 kts 113°
2026-04-17 15:33 27.63523 85.52827 11801 ft 160 kts 114°
2026-04-17 15:34 27.63008 85.53933 11960 ft 157 kts 109°
2026-04-17 15:34 27.62634 85.55067 12129 ft 154 kts 105°
2026-04-17 15:34 27.62252 85.56187 12257 ft 154 kts 105°
2026-04-17 15:34 27.61911 85.57320 12411 ft 152 kts 104°
2026-04-17 15:35 27.61523 85.58446 12513 ft 155 kts 109°
2026-04-17 15:35 27.61098 85.59540 12676 ft 150 kts 108°
2026-04-17 15:35 27.60705 85.60608 12833 ft 148 kts 110°
2026-04-17 15:35 27.60243 85.61668 12914 ft 152 kts 116°
2026-04-17 15:36 27.59654 85.62682 12986 ft 157 kts 122°
2026-04-17 15:36 27.58986 85.63697 12962 ft 168 kts 130°
2026-04-17 15:36 27.58181 85.64693 13063 ft 170 kts 132°
2026-04-17 15:36 27.57556 85.65822 13099 ft 177 kts 113°
2026-04-17 15:37 27.57259 85.67158 13303 ft 166 kts 97°
2026-04-17 15:37 27.57152 85.68394 13525 ft 158 kts 92°
2026-04-17 15:37 27.57091 85.69648 13607 ft 158 kts 90°
2026-04-17 15:37 27.56925 85.70808 13914 ft 148 kts 102°
2026-04-17 15:38 27.56473 85.71915 13923 ft 159 kts 107°
2026-04-17 15:38 27.56053 85.73099 13982 ft 164 kts 104°
2026-04-17 15:38 27.55858 85.74345 14018 ft 163 kts 88°
2026-04-17 15:38 27.55568 85.75589 14061 ft 169 kts 116°
2026-04-17 15:39 27.54775 85.76581 14104 ft 171 kts 135°
2026-04-17 15:39 27.54007 85.77599 14158 ft 173 kts 126°
2026-04-17 15:39 27.53241 85.78665 14211 ft 175 kts 139°
2026-04-17 15:39 27.52218 85.79370 14268 ft 174 kts 161°
2026-04-17 15:40 27.51161 85.80083 14318 ft 182 kts 135°
2026-04-17 15:40 27.50594 85.81345 14373 ft 183 kts 104°
2026-04-17 15:40 27.50086 85.82673 14421 ft 187 kts 125°
2026-04-17 15:40 27.49117 85.83663 14463 ft 188 kts 147°
2026-04-17 15:41 27.48016 85.84465 14514 ft 189 kts 151°
2026-04-17 15:41 27.46877 85.85238 14540 ft 191 kts 147°
2026-04-17 15:41 27.45868 85.86191 14582 ft 192 kts 136°
2026-04-17 15:41 27.44926 85.87270 14628 ft 193 kts 136°
2026-04-17 15:42 27.43904 85.88257 14677 ft 194 kts 143°
2026-04-17 15:42 27.42818 85.89163 14715 ft 194 kts 145°
2026-04-17 15:42 27.41715 85.90070 14760 ft 195 kts 142°
2026-04-17 15:42 27.40695 85.91071 14797 ft 195 kts 140°
2026-04-17 15:43 27.39635 85.92033 14843 ft 195 kts 144°
2026-04-17 15:43 27.38594 85.93009 14895 ft 195 kts 141°
2026-04-17 15:43 27.37569 85.94028 14946 ft 196 kts 140°
2026-04-17 15:43 27.36529 85.95026 14994 ft 196 kts 142°
2026-04-17 15:44 27.35510 85.96056 15026 ft 196 kts 139°
2026-04-17 15:44 27.34447 85.97066 14923 ft 204 kts 141°
2026-04-17 15:44 27.33401 85.98161 14917 ft 208 kts 135°
2026-04-17 15:44 27.32322 85.99270 14888 ft 212 kts 143°
2026-04-17 15:45 27.31200 86.00348 14838 ft 216 kts 137°
2026-04-17 15:45 27.30093 86.01501 14799 ft 216 kts 140°
2026-04-17 15:45 27.28957 86.02595 14810 ft 214 kts 142°
2026-04-17 15:45 27.27836 86.03700 14803 ft 214 kts 139°
2026-04-17 15:46 27.26730 86.04823 14803 ft 214 kts 141°
2026-04-17 15:46 27.25583 86.05936 14772 ft 214 kts 141°
2026-04-17 15:46 27.24487 86.07037 14785 ft 211 kts 141°
2026-04-17 15:46 27.23368 86.08117 14787 ft 209 kts 141°
2026-04-17 15:47 27.22294 86.09244 14684 ft 217 kts 139°
2026-04-17 15:47 27.21137 86.10368 14550 ft 222 kts 142°
2026-04-17 15:47 27.19958 86.11532 14381 ft 228 kts 137°
2026-04-17 15:47 27.18916 86.12896 14232 ft 231 kts 126°
2026-04-17 15:48 27.17983 86.14380 14109 ft 233 kts 123°
2026-04-17 15:48 27.17065 86.15882 13962 ft 235 kts 124°
2026-04-17 15:48 27.16185 86.17433 13815 ft 236 kts 121°
2026-04-17 15:48 27.15244 86.18945 13664 ft 237 kts 126°
2026-04-17 15:49 27.14273 86.20449 13495 ft 237 kts 125°
2026-04-17 15:49 27.13305 86.21960 13352 ft 237 kts 123°
2026-04-17 15:49 27.12382 86.23476 13220 ft 237 kts 123°
2026-04-17 15:49 27.11442 86.25001 13086 ft 236 kts 122°
2026-04-17 15:50 27.10494 86.26485 12928 ft 236 kts 127°
2026-04-17 15:50 27.09527 86.27981 12798 ft 235 kts 123°
2026-04-17 15:50 27.08650 86.29533 12682 ft 234 kts 121°
2026-04-17 15:50 27.07747 86.31036 12592 ft 234 kts 125°
2026-04-17 15:51 27.06760 86.32494 12479 ft 234 kts 124°
2026-04-17 15:51 27.05830 86.33995 12336 ft 234 kts 122°
2026-04-17 15:51 27.04901 86.35516 12194 ft 233 kts 123°
2026-04-17 15:51 27.04001 86.37006 12058 ft 231 kts 123°
2026-04-17 15:52 27.03056 86.38477 11928 ft 231 kts 126°
2026-04-17 15:52 27.02139 86.39934 11829 ft 230 kts 120°
2026-04-17 15:52 27.01328 86.41495 11696 ft 230 kts 121°
2026-04-17 15:52 27.00368 86.42920 11569 ft 230 kts 128°
2026-04-17 15:53 26.99361 86.44333 11433 ft 229 kts 127°
2026-04-17 15:53 26.98404 86.45737 11352 ft 225 kts 125°
2026-04-17 15:53 26.97520 86.47114 11379 ft 214 kts 123°
2026-04-17 15:53 26.96671 86.48457 11375 ft 206 kts 124°
2026-04-17 15:54 26.95885 86.49759 11392 ft 198 kts 121°
2026-04-17 15:54 26.95124 86.51048 11408 ft 195 kts 122°
2026-04-17 15:54 26.94361 86.52300 11372 ft 195 kts 122°
2026-04-17 15:54 26.93606 86.53550 11356 ft 194 kts 124°
2026-04-17 15:55 26.92831 86.54810 11351 ft 195 kts 122°
2026-04-17 15:55 26.92049 86.56040 11352 ft 195 kts 125°
2026-04-17 15:55 26.91252 86.57291 11349 ft 199 kts 124°
2026-04-17 15:55 26.90439 86.58580 11339 ft 202 kts 123°
2026-04-17 15:56 26.89637 86.59885 11327 ft 203 kts 122°
2026-04-17 15:56 26.88831 86.61190 11315 ft 204 kts 124°
2026-04-17 15:56 26.88020 86.62486 11312 ft 204 kts 121°
2026-04-17 15:56 26.87226 86.63817 11307 ft 204 kts 124°
2026-04-17 15:57 26.86392 86.65106 11297 ft 204 kts 121°
2026-04-17 15:57 26.85975 86.66573 11285 ft 198 kts 86°
2026-04-17 15:57 26.86142 86.68066 11299 ft 194 kts 78°
2026-04-17 15:57 26.86226 86.69595 11294 ft 195 kts 85°
2026-04-17 15:58 26.86289 86.71101 11295 ft 195 kts 81°
2026-04-17 15:58 26.86373 86.72636 11293 ft 197 kts 87°
2026-04-17 15:58 26.86338 86.74171 11283 ft 197 kts 87°
2026-04-17 15:58 26.86354 86.75689 11286 ft 197 kts 84°
2026-04-17 15:59 26.86419 86.77224 11304 ft 196 kts 84°
2026-04-17 15:59 26.86436 86.78748 11318 ft 196 kts 87°
2026-04-17 15:59 26.86450 86.80278 11325 ft 195 kts 83°
2026-04-17 15:59 26.86535 86.81782 11343 ft 195 kts 85°
2026-04-17 16:00 26.86523 86.83310 11347 ft 196 kts 86°
2026-04-17 16:00 26.86562 86.84836 11344 ft 195 kts 84°
2026-04-17 16:00 26.86563 86.86358 11351 ft 196 kts 88°
2026-04-17 16:00 26.86547 86.87891 11358 ft 195 kts 84°
2026-04-17 16:01 26.86579 86.89405 11369 ft 196 kts 85°
2026-04-17 16:01 26.86632 86.90938 11375 ft 195 kts 83°
2026-04-17 16:01 26.86641 86.92475 11383 ft 196 kts 88°
2026-04-17 16:01 26.86605 86.93993 11394 ft 196 kts 88°
2026-04-17 16:02 26.86532 86.95524 11391 ft 197 kts 90°
2026-04-17 16:02 26.86506 86.97042 11404 ft 196 kts 85°
2026-04-17 16:02 26.86565 86.98575 11414 ft 194 kts 81°
2026-04-17 16:02 26.86663 87.00077 11430 ft 195 kts 84°
2026-04-17 16:03 26.86710 87.01595 11420 ft 196 kts 84°
2026-04-17 16:03 26.86750 87.03117 11412 ft 196 kts 86°
2026-04-17 16:03 26.86760 87.04637 11418 ft 196 kts 86°
2026-04-17 16:03 26.86780 87.06156 11415 ft 196 kts 85°
2026-04-17 16:04 26.86801 87.07684 11408 ft 196 kts 86°
2026-04-17 16:04 26.86828 87.09208 11418 ft 195 kts 84°
2026-04-17 16:04 26.86859 87.10725 11415 ft 195 kts 88°
2026-04-17 16:04 26.86841 87.12237 11415 ft 194 kts 85°
2026-04-17 16:05 26.86872 87.13739 11423 ft 194 kts 86°
2026-04-17 16:05 26.86877 87.15250 11418 ft 194 kts 87°
2026-04-17 16:05 26.86879 87.16770 11417 ft 194 kts 86°
2026-04-17 16:05 26.86875 87.18276 11406 ft 194 kts 87°
2026-04-17 16:06 26.86877 87.19782 11398 ft 193 kts 84°
2026-04-17 16:06 26.86954 87.21294 11405 ft 194 kts 85°
2026-04-17 16:06 26.86943 87.22795 11396 ft 194 kts 87°
2026-04-17 16:06 26.86959 87.24313 11396 ft 194 kts 85°
2026-04-17 16:07 26.86804 87.25811 11401 ft 197 kts 107°
2026-04-17 16:07 26.86046 87.27105 11397 ft 198 kts 124°
2026-04-17 16:07 26.85366 87.28439 11388 ft 198 kts 114°
2026-04-17 16:07 26.84787 87.29826 11386 ft 197 kts 112°
2026-04-17 16:08 26.84210 87.31214 11389 ft 197 kts 114°
2026-04-17 16:08 26.83604 87.32591 11388 ft 198 kts 112°
2026-04-17 16:08 26.83008 87.33997 11370 ft 199 kts 112°
2026-04-17 16:08 26.82413 87.35406 11366 ft 199 kts 115°
2026-04-17 16:09 26.81814 87.36792 11364 ft 198 kts 113°
2026-04-17 16:09 26.81202 87.38196 11361 ft 199 kts 114°
2026-04-17 16:09 26.80590 87.39600 11353 ft 199 kts 112°
2026-04-17 16:09 26.79992 87.40990 11356 ft 199 kts 115°
2026-04-17 16:10 26.79378 87.42391 11354 ft 199 kts 110°
2026-04-17 16:10 26.78805 87.43789 11348 ft 199 kts 115°
2026-04-17 16:10 26.78171 87.45180 11335 ft 200 kts 114°
2026-04-17 16:10 26.77534 87.46561 11329 ft 200 kts 115°
2026-04-17 16:11 26.76931 87.47969 11332 ft 199 kts 111°
2026-04-17 16:11 26.76327 87.49355 11340 ft 199 kts 118°
2026-04-17 16:11 26.75523 87.50624 11335 ft 199 kts 124°
2026-04-17 16:11 26.74819 87.51959 11333 ft 198 kts 111°
2026-04-17 16:12 26.74493 87.53430 11332 ft 195 kts 94°
2026-04-17 16:12 26.74260 87.54914 11329 ft 197 kts 105°
2026-04-17 16:12 26.73522 87.56229 11331 ft 199 kts 129°
2026-04-17 16:12 26.72636 87.57402 11329 ft 199 kts 124°
2026-04-17 16:13 26.72013 87.58778 11333 ft 197 kts 109°
2026-04-17 16:13 26.71378 87.60149 11326 ft 199 kts 121°
2026-04-17 16:13 26.70659 87.61455 11322 ft 199 kts 115°
2026-04-17 16:13 26.70091 87.62871 11328 ft 198 kts 112°
2026-04-17 16:14 26.68730 87.65566 11316 ft 199 kts 112°
2026-04-17 16:14 26.68146 87.66979 11318 ft 199 kts 116°
2026-04-17 16:14 26.67432 87.68304 11318 ft 198 kts 118°
2026-04-17 16:15 26.66813 87.69679 11320 ft 198 kts 116°
2026-04-17 16:15 26.66117 87.70991 11320 ft 198 kts 118°
2026-04-17 16:15 26.65547 87.72409 11317 ft 197 kts 108°
2026-04-17 16:15 26.65027 87.73813 11326 ft 198 kts 113°
2026-04-17 16:16 26.64460 87.75221 11323 ft 197 kts 110°
2026-04-17 16:16 26.63948 87.76646 11323 ft 197 kts 109°
2026-04-17 16:16 26.63431 87.78068 11315 ft 198 kts 113°
2026-04-17 16:16 26.62838 87.79470 11315 ft 198 kts 110°
2026-04-17 16:17 26.62415 87.80934 11310 ft 197 kts 105°
2026-04-17 16:17 26.61874 87.82336 11310 ft 199 kts 116°
2026-04-17 16:17 26.61254 87.83715 11305 ft 198 kts 111°
2026-04-17 16:17 26.60778 87.85159 11316 ft 197 kts 108°
2026-04-17 16:18 26.60339 87.86595 11310 ft 197 kts 104°
2026-04-17 16:18 26.60005 87.88081 11307 ft 197 kts 99°
2026-04-17 16:18 26.59651 87.89574 11289 ft 199 kts 104°
2026-04-17 16:18 26.59395 87.91082 11279 ft 196 kts 89°
2026-04-17 16:19 26.59427 87.92602 11200 ft 198 kts 86°
2026-04-17 16:19 26.59283 87.94088 11054 ft 189 kts 98°
2026-04-17 16:19 26.59085 87.95510 10897 ft 179 kts 92°
2026-04-17 16:19 26.58925 87.96861 10741 ft 174 kts 100°
2026-04-17 16:20 26.58613 87.98150 10590 ft 168 kts 98°
2026-04-17 16:20 26.58456 87.99428 10344 ft 164 kts 96°
2026-04-17 16:20 26.58176 88.00642 10082 ft 161 kts 103°
2026-04-17 16:20 26.57977 88.01859 9812 ft 158 kts 99°
2026-04-17 16:21 26.57709 88.03111 9566 ft 168 kts 99°
2026-04-17 16:21 26.57538 88.04419 9316 ft 174 kts 98°
2026-04-17 16:21 26.57270 88.05755 9056 ft 179 kts 102°
2026-04-17 16:21 26.57060 88.07139 8674 ft 183 kts 98°
2026-04-17 16:22 26.56798 88.08527 8298 ft 182 kts 102°
2026-04-17 16:22 26.56560 88.09911 7924 ft 180 kts 99°
2026-04-17 16:22 26.56357 88.11295 7544 ft 179 kts 99°
2026-04-17 16:22 26.56128 88.12644 7174 ft 178 kts 101°
2026-04-17 16:23 26.55932 88.14008 6797 ft 177 kts 100°
2026-04-17 16:23 26.55711 88.15353 6414 ft 175 kts 99°
2026-04-17 16:23 26.55756 88.16688 6039 ft 175 kts 73°
2026-04-17 16:23 26.56507 88.17716 5657 ft 176 kts 27°
2026-04-17 16:24 26.57691 88.17824 5290 ft 175 kts 350°
2026-04-17 16:24 26.58893 88.17557 4919 ft 174 kts 350°
2026-04-17 16:24 26.60078 88.17344 4556 ft 174 kts 347°
2026-04-17 16:24 26.61119 88.16712 4345 ft 162 kts 309°
2026-04-17 16:25 26.61556 88.15636 4414 ft 151 kts 289°
2026-04-17 16:25 26.61984 88.14541 4434 ft 157 kts 297°
2026-04-17 16:25 26.62531 88.13450 4440 ft 163 kts 294°
2026-04-17 16:25 26.62848 88.12217 4435 ft 166 kts 279°
2026-04-17 16:26 26.63077 88.10980 4423 ft 159 kts 285°
2026-04-17 16:26 26.63427 88.09829 4426 ft 154 kts 288°
2026-04-17 16:26 26.63723 88.08683 4421 ft 151 kts 285°
2026-04-17 16:26 26.64057 88.07575 4412 ft 149 kts 288°
2026-04-17 16:27 26.64355 88.06484 4413 ft 146 kts 285°
2026-04-17 16:27 26.64670 88.05410 4415 ft 145 kts 288°
2026-04-17 16:27 26.64896 88.04326 4422 ft 142 kts 279°
2026-04-17 16:27 26.65119 88.03241 4432 ft 142 kts 284°
2026-04-17 16:28 26.65408 88.02186 4423 ft 141 kts 286°
2026-04-17 16:28 26.65671 88.01138 4418 ft 138 kts 283°
2026-04-17 16:28 26.65670 88.00090 4419 ft 134 kts 252°
2026-04-17 16:28 26.65271 87.99176 4427 ft 131 kts 237°
2026-04-17 16:29 26.64798 87.98296 4425 ft 130 kts 236°
2026-04-17 16:29 26.64256 87.97499 4429 ft 128 kts 227°
2026-04-17 16:29 26.63560 87.96850 4424 ft 131 kts 212°
2026-04-17 16:29 26.62728 87.96418 4419 ft 133 kts 197°
2026-04-17 16:30 26.61793 87.96262 4409 ft 136 kts 181°
2026-04-17 16:30 26.60843 87.96214 4390 ft 139 kts 184°
2026-04-17 16:30 26.59866 87.96226 4379 ft 140 kts 165°
2026-04-17 16:30 26.59149 87.96882 4375 ft 138 kts 108°
2026-04-17 16:31 26.59045 87.97945 4384 ft 138 kts 94°
2026-04-17 16:31 26.58947 87.99092 4056 ft 161 kts 98°
2026-04-17 16:31 26.58789 88.00397 3702 ft 173 kts 98°
2026-04-17 16:31 26.58630 88.01656 3278 ft 158 kts 98°
2026-04-17 16:32 26.58515 88.02823 2894 ft 146 kts 95°
2026-04-17 16:32 26.58377 88.03917 2511 ft 139 kts 104°
2026-04-17 16:32 26.58065 88.04915 2136 ft 135 kts 114°
2026-04-17 16:32 26.57680 88.05881 1775 ft 137 kts 114°
2026-04-17 16:33 26.57326 88.06844 1428 ft 136 kts 109°
2026-04-17 16:33 26.57068 88.07848 1346 ft 131 kts 103°
2026-04-17 16:33 26.56847 88.08856 1388 ft 130 kts 105°
2026-04-17 16:33 26.56608 88.09849 1380 ft 133 kts 105°
2026-04-17 16:34 26.56375 88.10854 1379 ft 135 kts 103°
2026-04-17 16:34 26.56395 88.11900 1373 ft 138 kts 68°
2026-04-17 16:34 26.57021 88.12711 1374 ft 141 kts 35°
2026-04-17 16:34 26.57973 88.12955 1372 ft 144 kts 348°
2026-04-17 16:35 26.58737 88.12290 1378 ft 145 kts 293°
2026-04-17 16:35 26.58685 88.11202 1381 ft 143 kts 239°
2026-04-17 16:35 26.58062 88.10377 1465 ft 137 kts 227°
2026-04-17 16:35 26.57406 88.09542 1393 ft 144 kts 225°
2026-04-17 16:36 26.56705 88.08764 1433 ft 142 kts 222°
2026-04-17 16:36 26.55993 88.08003 1423 ft 139 kts 221°
2026-04-17 16:36 26.55297 88.07263 1344 ft 136 kts 226°
2026-04-17 16:36 26.54829 88.06357 1294 ft 134 kts 250°
2026-04-17 16:37 26.54658 88.05359 1251 ft 128 kts 261°
2026-04-17 16:37 26.54545 88.04417 1436 ft 99 kts 260°
2026-04-17 16:37 26.54453 88.03741 1497 ft 92 kts 259°
2026-04-17 16:37 26.54355 88.03032 1376 ft 93 kts 264°
2026-04-17 16:38 26.54607 88.02417 1230 ft 89 kts 333°
2026-04-17 16:38 26.55180 88.02341 1117 ft 83 kts
2026-04-17 16:38 26.55691 88.02535 1032 ft 74 kts 44°
2026-04-17 16:38 26.56026 88.02944 1104 ft 68 kts 56°
2026-04-17 16:39 26.56336 88.03365 971 ft 71 kts 51°
2026-04-17 16:39 26.56645 88.03761 950 ft 67 kts 53°
2026-04-17 16:39 26.56938 88.04189 944 ft 70 kts 57°
2026-04-17 16:39 26.57194 88.04674 908 ft 73 kts 69°
2026-04-17 16:40 26.57331 88.05223 862 ft 75 kts 78°
2026-04-17 16:40 26.57403 88.05804 687 ft 76 kts 90°
2026-04-17 16:40 26.57353 88.06376 514 ft 71 kts 105°
2026-04-17 16:40 26.57243 88.06925 419 ft 73 kts 103°
2026-04-17 16:41 26.57152 88.07477 335 ft 66 kts 101°
2026-04-17 16:41 26.57091 88.07838 329 ft 31 kts 100°
2026-04-17 16:41 26.57058 88.08051 327 ft 23 kts 101°
2026-04-17 16:41 26.57032 88.08212 325 ft 18 kts 101°
2026-04-17 16:42 26.57004 88.08381 324 ft 26 kts 99°
2026-04-17 16:42 26.56972 88.08586 321 ft 11 kts 97°
2026-04-17 16:42 26.56977 88.08632 321 ft 4 kts 335°
2026-04-17 16:42 26.56980 88.08603 321 ft 3 kts 262°
2026-04-17 16:43 26.56976 88.08577 321 ft 3 kts 261°
2026-04-17 16:43 26.56990 88.08468 322 ft 48 kts 276°
2026-04-17 16:43 26.57092 88.07851 420 ft 98 kts 278°
2026-04-17 16:43 26.57172 88.07065 765 ft 114 kts 273°
2026-04-17 16:44 26.57252 88.06105 1095 ft 127 kts 274°
2026-04-17 16:44 26.57415 88.05104 1398 ft 132 kts 296°
2026-04-17 16:44 26.58109 88.04459 1679 ft 136 kts 347°
2026-04-17 16:44 26.58986 88.04684 2009 ft 133 kts 45°
2026-04-17 16:45 26.59278 88.05647 2257 ft 136 kts 92°
2026-04-17 16:45 26.59221 88.06745 2364 ft 152 kts 94°
2026-04-17 16:45 26.59119 88.07903 2420 ft 140 kts 104°
2026-04-17 16:45 26.58712 88.08858 2202 ft 135 kts 131°
2026-04-17 16:46 26.57892 88.09276 2012 ft 132 kts 185°
2026-04-17 16:46 26.57150 88.08761 1831 ft 133 kts 233°
2026-04-17 16:46 26.56726 88.07858 1754 ft 127 kts 244°
2026-04-17 16:46 26.56357 88.06936 1606 ft 128 kts 244°
2026-04-17 16:47 26.56009 88.06065 1548 ft 122 kts 246°
2026-04-17 16:47 26.55712 88.05173 1470 ft 119 kts 248°
2026-04-17 16:47 26.55408 88.04337 1413 ft 114 kts 245°
2026-04-17 16:47 26.55095 88.03532 1360 ft 108 kts 246°
2026-04-17 16:48 26.54972 88.02738 1298 ft 106 kts 288°
2026-04-17 16:48 26.55542 88.02325 1200 ft 101 kts
2026-04-17 16:48 26.56224 88.02376 1183 ft 92 kts 12°
2026-04-17 16:48 26.56773 88.02656 1107 ft 89 kts 53°
2026-04-17 16:49 26.57046 88.03247 1067 ft 79 kts 71°
2026-04-17 16:49 26.57220 88.03833 925 ft 79 kts 75°
2026-04-17 16:49 26.57376 88.04408 817 ft 71 kts 78°
2026-04-17 16:49 26.57442 88.04971 725 ft 75 kts 88°
2026-04-17 16:50 26.57451 88.05527 635 ft 70 kts 96°
2026-04-17 16:50 26.57381 88.06065 552 ft 69 kts 102°
2026-04-17 16:50 26.57297 88.06588 469 ft 68 kts 101°
2026-04-17 16:50 26.57213 88.07107 377 ft 68 kts 103°
2026-04-17 16:51 26.57128 88.07613 331 ft 59 kts 100°
2026-04-17 16:51 26.57074 88.07945 328 ft 20 kts 98°
2026-04-17 16:51 26.57047 88.08111 326 ft 22 kts 99°
2026-04-17 16:51 26.57033 88.08205 325 ft 5 kts 286°
2026-04-17 16:52 26.57045 88.08128 326 ft 16 kts 279°
2026-04-17 16:52 26.57074 88.07944 328 ft 31 kts 279°
2026-04-17 16:52 26.57076 88.07724 330 ft 23 kts 200°
2026-04-17 16:52 26.57041 88.07670 331 ft 0 kts 248°
2026-04-17 16:55 26.57030 88.07640 331 ft 8 kts 246°
2026-04-17 16:55 26.57003 88.07657 331 ft 2 kts 72°
2026-04-17 16:55 26.57004 88.07658 331 ft 0 kts 71°